JIELONG 3 R/B, 62586

Orbit data source: Space-Track

JIELONG 3 R/B, 62586 is space debris in LEO originally from a launch on Mon, 13 Jan 2025 UTC launched from the Yellow Sea Launch Area, China (YSLA). Debris objects in space refer to the collection of defunct objects orbiting the Earth. Examples of debris include non-operational satellites, rocket bodies, and fragments generated from explosions, collisions, or faulty payload assembly.

Not visible in the next 10 days
JIELONG 3 R/B details
Identifier
62586, 2025-007M
Orbit
LEO
Last TLE update16 hours ago
Origin
Flag of CNChangzheng H. (CN / PRC)
ManufacturerChangzheng H.
MissionSpacecraft
Bus & MotorUnknown
Mass500 kg wet, 500 kg dry
Launch date (UTC)
2025-01-13 (3 weeks ago)
Launch vehicleUnknown
Launch site
Yellow Sea Launch Area, China (YSLA)
Object type
Payload
Rocket body
Debris
Shape & HBRUnknown
Radar Cross SectionLarge (>1 m²)

Expand to show TLE details & history

TLE from 16 hours ago
0 JIELONG 3 R/B
1 62586U 25007M   25035.48379173  .00644962  10396-4  10578-2 0  9995
2 62586  54.9364  24.8632 0239227  56.9784 305.3994 15.67141117  3470
Epoch: 2025-02-04T11:36Z
Definitive object data (Epoch: 2025-02-04T11:36:39.605Z)
Latitude-0.00006°
Longitude75.80971°
Altitude277.337 km
Speed7.794 km/s
True Right ascension01h 39m 27s
True Declination0° 00' 00"
Sunlit
Object was in daylight at TLE epoch
Visualization TLE readout
Latitude-39.89109°
Longitude-71.6925°
Altitude535.702 km
Speed7.505 km/s
Apparent Right ascension16h 49m 33s
Apparent Declination-40° 47' 28"
Sunlit
Object is in daylight
Visualization observer readout
Local Sidereal Time05:54:52
Azimuth99.303° ESE
Elevation-77.543°
Doppler factor1
Orbital elements
Apogee altitude528.423 km
Perigee altitude205.696 km
Semi-major axis6,745.197 km
Eccentricity0.0239227
Inclination54.9364°
RAAN24.8632°
Arg. of periapsis56.9784°
True anomaly303.12608°
Mean anomaly305.3994°
Eccentric anomaly304.26664°
Mean motion3.91788 °/min
BSTAR0.0010578
Orbital period91.89 mins
Loading maneuver chart data...
Loading historical data...
Loading historical data...
Loading historical data...
Loading historical data...
Loading historical data...
Loading historical data...
Loading historical data...

JIELONG 3 R/B Visibility forecast

Observer location: undefined°, undefined

JIELONG 3 R/B is not visible in the next 10 days
Span
Click to sort rows by Start time (UTC) header in descending order
Start Az.
Max El. time (UTC)
Max El. Az.
Max El.
End time (UTC)
End Az.
|